Wetterdaten: Freitag, 01.04.2016
Datum Zeit Temp. A. Mod.Schuppen Aussentemp2 Feuchte A. Luftdruck Regen Wind Richtung Richtung Sonnenschein Helligkeit Solar
01.04.2016 00:04 7,6 C 6,6 C 9,2 C 69 % 1012,8 hPa 0,0 l/m 13,9 km/h (3 Bft) NO22.5 35 0 min 0 lux 0 W/m
01.04.2016 00:09 7,6 C 6,7 C 9,2 C 69 % 1012,8 hPa 0,0 l/m 13,7 km/h (3 Bft) N-NO22.5 15 0 min 0 lux 0 W/m
01.04.2016 00:14 7,6 C 6,6 C 9,2 C 69 % 1012,8 hPa 0,0 l/m 13,2 km/h (3 Bft) N-NO45 20 0 min 0 lux 0 W/m
01.04.2016 00:19 7,6 C 6,5 C 9,2 C 69 % 1012,8 hPa 0,0 l/m 9,2 km/h (2 Bft) N-NO 15 0 min 0 lux 0 W/m
01.04.2016 00:24 7,6 C 6,4 C 9,2 C 69 % 1012,8 hPa 0,0 l/m 6,8 km/h (2 Bft) N 360 0 min 0 lux 0 W/m
01.04.2016 00:30 7,6 C 6,3 C 9,2 C 69 % 1012,8 hPa 0,0 l/m 8,9 km/h (2 Bft) N-NO 25 0 min 0 lux 0 W/m
01.04.2016 00:34 7,6 C 6,2 C 9,2 C 69 % 1012,8 hPa 0,0 l/m 10,8 km/h (2 Bft) NO 45 0 min 0 lux 0 W/m
01.04.2016 00:39 7,6 C 6,2 C 9,2 C 69 % 1012,8 hPa 0,0 l/m 10,5 km/h (2 Bft) NO22.5 40 0 min 0 lux 0 W/m
01.04.2016 00:44 7,5 C 6,1 C 9,2 C 70 % 1012,8 hPa 0,0 l/m 13,8 km/h (3 Bft) NO22.5 40 0 min 0 lux 0 W/m
01.04.2016 00:49 7,6 C 6,3 C 9,2 C 70 % 1012,8 hPa 0,0 l/m 11,3 km/h (2 Bft) NO22.5 40 0 min 0 lux 0 W/m
01.04.2016 00:54 7,6 C 6,2 C 9,2 C 69 % 1013,8 hPa 0,0 l/m 7,9 km/h (2 Bft) NO 40 0 min 0 lux 0 W/m
01.04.2016 01:00 7,6 C 6,2 C 9,2 C 69 % 1013,8 hPa 0,0 l/m 7,0 km/h (2 Bft) NO 40 0 min 0 lux 0 W/m
01.04.2016 01:04 7,6 C 6,2 C 9,2 C 69 % 1013,8 hPa 0,0 l/m 1,0 km/h (0 Bft) NO 40 0 min 0 lux 0 W/m
01.04.2016 01:09 7,6 C 6,1 C 9,2 C 70 % 1013,8 hPa 0,0 l/m 9,6 km/h (2 Bft) NO 40 0 min 0 lux 0 W/m
01.04.2016 01:14 7,5 C 6,1 C 9,2 C 70 % 1013,8 hPa 0,0 l/m 7,4 km/h (2 Bft) NO 40 0 min 0 lux 0 W/m
01.04.2016 01:20 7,5 C 6,2 C 9,2 C 70 % 1013,8 hPa 0,0 l/m 5,1 km/h (1 Bft) NO 40 0 min 0 lux 0 W/m
01.04.2016 01:24 7,5 C 6,1 C 9,3 C 70 % 1013,8 hPa 0,0 l/m 5,3 km/h (1 Bft) NO 40 0 min 0 lux 0 W/m
01.04.2016 01:29 7,4 C 6,0 C 9,2 C 70 % 1013,8 hPa 0,0 l/m 4,5 km/h (1 Bft) NO 40 0 min 0 lux 0 W/m
01.04.2016 01:34 7,3 C 5,8 C 9,3 C 71 % 1013,8 hPa 0,0 l/m 3,1 km/h (1 Bft) NO 40 0 min 0 lux 0 W/m
01.04.2016 01:39 7,2 C 5,8 C 9,3 C 71 % 1013,8 hPa 0,0 l/m 0,0 km/h (0 Bft) NO 40 0 min 0 lux 0 W/m
01.04.2016 01:44 7,2 C 5,8 C 9,2 C 71 % 1013,8 hPa 0,0 l/m 0,0 km/h (0 Bft) NO 40 0 min 0 lux 0 W/m
01.04.2016 01:49 7,2 C 5,8 C 9,2 C 72 % 1013,8 hPa 0,0 l/m 1,8 km/h (1 Bft) NO 40 0 min 0 lux 0 W/m
01.04.2016 01:54 7,3 C 6,1 C 9,2 C 72 % 1013,8 hPa 0,0 l/m 6,5 km/h (2 Bft) NO 35 0 min 0 lux 0 W/m
01.04.2016 01:59 7,3 C 6,3 C 9,2 C 72 % 1013,8 hPa 0,0 l/m 6,0 km/h (2 Bft) N-NO 30 0 min 0 lux 0 W/m
01.04.2016 02:04 7,4 C 6,3 C 9,2 C 72 % 1013,8 hPa 0,0 l/m 9,8 km/h (2 Bft) N-NO 15 0 min 0 lux 0 W/m
01.04.2016 02:10 7,4 C 6,5 C 9,2 C 72 % 1013,8 hPa 0,0 l/m 18,9 km/h (3 Bft) N-NO22.5 20 0 min 0 lux 0 W/m
01.04.2016 02:14 7,5 C 6,6 C 9,1 C 72 % 1013,8 hPa 0,0 l/m 16,8 km/h (3 Bft) N-NO45 15 0 min 0 lux 0 W/m
01.04.2016 02:19 7,5 C 6,6 C 9,1 C 72 % 1014,8 hPa 0,0 l/m 15,8 km/h (3 Bft) N22.5 5 0 min 0 lux 0 W/m
01.04.2016 02:24 7,6 C 6,7 C 9,2 C 72 % 1014,8 hPa 0,0 l/m 21,0 km/h (4 Bft) N-NO22.5 25 0 min 0 lux 0 W/m
01.04.2016 02:29 7,5 C 6,7 C 9,1 C 71 % 1014,8 hPa 0,0 l/m 19,1 km/h (3 Bft) N-NO45 25 0 min 0 lux 0 W/m
01.04.2016 02:34 7,5 C 6,5 C 9,1 C 71 % 1013,8 hPa 0,0 l/m 19,1 km/h (3 Bft) N-NO45 20 0 min 0 lux 0 W/m
01.04.2016 02:39 7,4 C 6,5 C 9,1 C 71 % 1013,8 hPa 0,0 l/m 16,5 km/h (3 Bft) N22.5 10 0 min 0 lux 0 W/m
01.04.2016 02:44 7,4 C 6,4 C 9,1 C 71 % 1013,8 hPa 0,0 l/m 16,1 km/h (3 Bft) N-NO22.5 30 0 min 0 lux 0 W/m
01.04.2016 02:49 7,4 C 6,2 C 9,1 C 71 % 1014,8 hPa 0,0 l/m 14,9 km/h (3 Bft) NO67.5 35 0 min 0 lux 0 W/m
01.04.2016 02:54 7,3 C 6,1 C 9,1 C 71 % 1014,8 hPa 0,0 l/m 14,2 km/h (3 Bft) N-NO22.5 15 0 min 0 lux 0 W/m
01.04.2016 02:59 7,2 C 6,0 C 9,0 C 72 % 1014,8 hPa 0,0 l/m 20,2 km/h (4 Bft) N-NO22.5 15 0 min 0 lux 0 W/m
01.04.2016 03:04 7,2 C 6,1 C 9,0 C 72 % 1014,8 hPa 0,0 l/m 17,2 km/h (3 Bft) N22.5 10 0 min 0 lux 0 W/m
01.04.2016 03:09 7,2 C 5,9 C 9,0 C 72 % 1014,8 hPa 0,0 l/m 14,9 km/h (3 Bft) N22.5 10 0 min 0 lux 0 W/m
01.04.2016 03:14 7,2 C 5,9 C 9,0 C 72 % 1014,8 hPa 0,0 l/m 16,8 km/h (3 Bft) N-NO22.5 25 0 min 0 lux 0 W/m
01.04.2016 03:19 7,2 C 5,8 C 9,0 C 72 % 1014,8 hPa 0,0 l/m 14,7 km/h (3 Bft) N-NO45 15 0 min 0 lux 0 W/m
01.04.2016 03:25 7,1 C 5,8 C 9,0 C 72 % 1014,8 hPa 0,0 l/m 11,0 km/h (2 Bft) N22.5 10 0 min 0 lux 0 W/m
01.04.2016 03:29 7,1 C 5,8 C 9,0 C 73 % 1014,8 hPa 0,0 l/m 11,4 km/h (2 Bft) N22.5 10 0 min 0 lux 0 W/m
01.04.2016 03:34 7,0 C 5,8 C 9,0 C 73 % 1014,8 hPa 0,0 l/m 10,2 km/h (2 Bft) N22.5 5 0 min 0 lux 0 W/m
01.04.2016 03:39 7,0 C 5,8 C 9,0 C 73 % 1014,8 hPa 0,0 l/m 14,7 km/h (3 Bft) N67.5 10 0 min 0 lux 0 W/m
01.04.2016 03:44 7,0 C 5,8 C 9,0 C 73 % 1014,8 hPa 0,0 l/m 18,3 km/h (3 Bft) N22.5 10 0 min 0 lux 0 W/m
01.04.2016 03:49 6,8 C 5,7 C 9,0 C 73 % 1015,8 hPa 0,0 l/m 16,8 km/h (3 Bft) N22.5 10 0 min 0 lux 0 W/m
01.04.2016 03:54 6,8 C 5,7 C 9,0 C 74 % 1015,8 hPa 0,0 l/m 15,1 km/h (3 Bft) N67.5 10 0 min 0 lux 0 W/m
01.04.2016 03:59 6,8 C 5,6 C 8,9 C 74 % 1015,8 hPa 0,0 l/m 21,1 km/h (4 Bft) N-NO45 15 0 min 0 lux 0 W/m
01.04.2016 04:04 6,8 C 5,6 C 8,9 C 74 % 1015,8 hPa 0,0 l/m 14,2 km/h (3 Bft) N22.5 10 0 min 0 lux 0 W/m
01.04.2016 04:09 6,7 C 5,6 C 8,8 C 74 % 1015,8 hPa 0,0 l/m 16,7 km/h (3 Bft) N-NO22.5 15 0 min 0 lux 0 W/m
01.04.2016 04:14 6,6 C 5,4 C 8,9 C 74 % 1015,8 hPa 0,0 l/m 9,4 km/h (2 Bft) N22.5 5 0 min 0 lux 0 W/m
01.04.2016 04:19 6,6 C 5,3 C 8,9 C 74 % 1015,8 hPa 0,0 l/m 18,0 km/h (3 Bft) N22.5 5 0 min 0 lux 0 W/m
01.04.2016 04:24 6,5 C 5,3 C 8,9 C 74 % 1015,8 hPa 0,0 l/m 12,8 km/h (3 Bft) N 10 0 min 0 lux 0 W/m
01.04.2016 04:29 6,5 C 5,4 C 8,8 C 75 % 1015,8 hPa 0,0 l/m 14,4 km/h (3 Bft) N22.5 5 0 min 0 lux 0 W/m
01.04.2016 04:34 6,5 C 5,5 C 8,9 C 75 % 1015,8 hPa 0,0 l/m 12,6 km/h (3 Bft) N 5 0 min 0 lux 0 W/m
01.04.2016 04:40 6,4 C 5,5 C 8,8 C 75 % 1015,8 hPa 0,0 l/m 15,8 km/h (3 Bft) N22.5 10 0 min 0 lux 0 W/m
01.04.2016 04:44 6,4 C 5,5 C 8,8 C 75 % 1015,8 hPa 0,0 l/m 16,1 km/h (3 Bft) N-NO22.5 20 0 min 0 lux 0 W/m
01.04.2016 04:49 6,4 C 5,5 C 8,8 C 75 % 1015,8 hPa 0,0 l/m 12,6 km/h (3 Bft) N-NO22.5 15 0 min 0 lux 0 W/m
01.04.2016 04:54 6,4 C 5,4 C 8,8 C 75 % 1015,8 hPa 0,0 l/m 14,1 km/h (3 Bft) N-NO22.5 15 0 min 0 lux 0 W/m
01.04.2016 04:59 6,3 C 4,8 C 8,8 C 75 % 1015,8 hPa 0,0 l/m 13,6 km/h (3 Bft) NO22.5 35 0 min 0 lux 0 W/m
01.04.2016 05:04 6,2 C 4,2 C 8,7 C 75 % 1015,8 hPa 0,0 l/m 14,1 km/h (3 Bft) N-NO45 30 0 min 0 lux 0 W/m
01.04.2016 05:09 6,2 C 3,9 C 8,8 C 75 % 1015,8 hPa 0,0 l/m 14,0 km/h (3 Bft) N-NO22.5 30 0 min 0 lux 0 W/m
01.04.2016 05:14 6,1 C 3,4 C 8,7 C 75 % 1015,8 hPa 0,0 l/m 14,0 km/h (3 Bft) NO22.5 35 0 min 0 lux 0 W/m
01.04.2016 05:19 6,0 C 3,0 C 8,7 C 76 % 1015,8 hPa 0,0 l/m 16,9 km/h (3 Bft) NO45 45 0 min 0 lux 0 W/m
01.04.2016 05:24 5,8 C 3,0 C 8,7 C 76 % 1015,8 hPa 0,0 l/m 10,0 km/h (2 Bft) NO22.5 40 0 min 0 lux 0 W/m
01.04.2016 05:29 5,6 C 2,2 C 8,7 C 76 % 1015,9 hPa 0,0 l/m 13,1 km/h (3 Bft) NO22.5 40 0 min 0 lux 0 W/m
01.04.2016 05:34 5,6 C 2,1 C 8,7 C 77 % 1015,9 hPa 0,0 l/m 10,5 km/h (2 Bft) NO22.5 40 0 min 0 lux 0 W/m
01.04.2016 05:39 5,6 C 2,3 C 8,7 C 77 % 1015,9 hPa 0,0 l/m 14,6 km/h (3 Bft) NO22.5 35 0 min 0 lux 0 W/m
01.04.2016 05:44 5,5 C 2,5 C 8,7 C 77 % 1015,9 hPa 0,0 l/m 12,3 km/h (2 Bft) NO22.5 35 0 min 0 lux 0 W/m
01.04.2016 05:49 5,4 C 2,1 C 8,7 C 77 % 1015,9 hPa 0,0 l/m 6,8 km/h (2 Bft) NO 40 0 min 0 lux 0 W/m
01.04.2016 05:55 5,4 C 2,2 C 8,7 C 78 % 1015,9 hPa 0,0 l/m 12,7 km/h (3 Bft) N-NO22.5 25 0 min 0 lux 0 W/m
01.04.2016 05:59 5,3 C 2,3 C 8,7 C 78 % 1015,9 hPa 0,0 l/m 9,2 km/h (2 Bft) N-NO22.5 15 0 min 0 lux 0 W/m
01.04.2016 06:04 5,2 C 2,2 C 8,7 C 77 % 1015,9 hPa 0,0 l/m 9,3 km/h (2 Bft) N 5 0 min 0 lux 0 W/m
01.04.2016 06:09 5,1 C 2,2 C 8,7 C 78 % 1016,9 hPa 0,0 l/m 12,0 km/h (2 Bft) N 360 0 min 0 lux 0 W/m
01.04.2016 06:14 4,9 C 2,2 C 8,7 C 78 % 1016,9 hPa 0,0 l/m 9,6 km/h (2 Bft) N 360 0 min 0 lux 0 W/m
01.04.2016 06:19 4,8 C 2,2 C 8,6 C 79 % 1016,9 hPa 0,0 l/m 9,6 km/h (2 Bft) N22.5 5 0 min 0 lux 0 W/m
01.04.2016 06:24 4,7 C 2,1 C 8,6 C 79 % 1016,9 hPa 0,0 l/m 8,1 km/h (2 Bft) N 10 0 min 0 lux 0 W/m
01.04.2016 06:29 4,7 C 2,0 C 8,6 C 79 % 1016,9 hPa 0,0 l/m 7,0 km/h (2 Bft) N 355 0 min 0 lux 0 W/m
01.04.2016 06:34 4,6 C 1,9 C 8,6 C 79 % 1016,9 hPa 0,0 l/m 8,8 km/h (2 Bft) N 360 0 min 0 lux 0 W/m
01.04.2016 06:39 4,5 C 1,8 C 8,6 C 79 % 1016,9 hPa 0,0 l/m 7,6 km/h (2 Bft) N 360 0 min 0 lux 0 W/m
01.04.2016 06:44 4,4 C 1,6 C 8,6 C 79 % 1016,9 hPa 0,0 l/m 5,6 km/h (2 Bft) N 360 0 min 0 lux 0 W/m
01.04.2016 06:49 4,3 C 1,5 C 8,5 C 79 % 1016,9 hPa 0,0 l/m 4,8 km/h (1 Bft) N 360 0 min 33 lux 0 W/m
01.04.2016 06:54 4,3 C 1,5 C 8,5 C 80 % 1016,9 hPa 0,0 l/m 7,7 km/h (2 Bft) N 360 0 min 33 lux 0 W/m
01.04.2016 06:59 4,3 C 1,7 C 8,5 C 80 % 1016,9 hPa 0,0 l/m 8,1 km/h (2 Bft) N 360 0 min 33 lux 0 W/m
01.04.2016 07:04 4,3 C 1,7 C 8,4 C 81 % 1017,9 hPa 0,0 l/m 7,8 km/h (2 Bft) N 360 0 min 33 lux 0 W/m
01.04.2016 07:09 4,3 C 1,8 C 8,5 C 81 % 1017,9 hPa 0,0 l/m 6,5 km/h (2 Bft) N 360 0 min 33 lux 0 W/m
01.04.2016 07:14 4,3 C 1,6 C 8,5 C 81 % 1017,9 hPa 0,0 l/m 5,3 km/h (1 Bft) N 360 0 min 33 lux 0 W/m
01.04.2016 07:19 4,2 C 1,6 C 8,4 C 81 % 1017,9 hPa 0,0 l/m 6,6 km/h (2 Bft) N 360 0 min 985 lux 7 W/m
01.04.2016 07:24 4,1 C 1,5 C 8,5 C 81 % 1017,9 hPa 0,0 l/m 5,2 km/h (1 Bft) N 360 0 min 1,41 klux 10 W/m
01.04.2016 07:30 4,0 C 1,4 C 8,4 C 81 % 1017,9 hPa 0,0 l/m 0,4 km/h (0 Bft) N 360 0 min 1,41 klux 10 W/m
01.04.2016 07:34 3,9 C 1,5 C 8,4 C 81 % 1017,9 hPa 0,0 l/m 5,9 km/h (2 Bft) N 360 0 min 1,85 klux 13 W/m
01.04.2016 07:39 3,9 C 1,4 C 8,3 C 81 % 1017,9 hPa 0,0 l/m 3,4 km/h (1 Bft) N 360 0 min 1,85 klux 13 W/m
01.04.2016 07:44 3,9 C 1,3 C 8,4 C 81 % 1017,9 hPa 0,0 l/m 5,4 km/h (2 Bft) N 360 0 min 3,14 klux 21 W/m
01.04.2016 07:49 4,0 C 1,6 C 8,4 C 81 % 1017,9 hPa 0,0 l/m 5,8 km/h (2 Bft) N 360 0 min 3,14 klux 21 W/m
01.04.2016 07:54 4,1 C 1,8 C 8,5 C 81 % 1017,9 hPa 0,0 l/m 4,2 km/h (1 Bft) N 360 0 min 4,42 klux 30 W/m
01.04.2016 07:59 4,1 C 2,3 C 8,4 C 82 % 1017,9 hPa 0,0 l/m 4,5 km/h (1 Bft) N 360 0 min 5,59 klux 38 W/m
01.04.2016 08:04 4,3 C 2,7 C 8,4 C 82 % 1017,9 hPa 0,0 l/m 7,3 km/h (2 Bft) N 360 0 min 5,59 klux 38 W/m
01.04.2016 08:09 4,3 C 3,1 C 8,4 C 82 % 1017,9 hPa 0,0 l/m 5,7 km/h (2 Bft) N 360 0 min 7,87 klux 54 W/m
01.04.2016 08:14 4,3 C 3,7 C 8,4 C 82 % 1017,9 hPa 0,0 l/m 0,0 km/h (0 Bft) N 360 0 min 7,87 klux 54 W/m
01.04.2016 08:19 4,4 C 4,4 C 8,4 C 82 % 1017,9 hPa 0,0 l/m 0,6 km/h (0 Bft) N 360 0 min 9,4 klux 64 W/m
01.04.2016 08:24 4,6 C 5,2 C 8,5 C 82 % 1018,9 hPa 0,0 l/m 0,1 km/h (0 Bft) N 360 0 min 10,5 klux 72 W/m
01.04.2016 08:29 4,7 C 5,6 C 8,4 C 82 % 1018,9 hPa 0,0 l/m 3,8 km/h (1 Bft) N 360 0 min 10,5 klux 72 W/m
01.04.2016 08:34 4,9 C 6,3 C 8,3 C 82 % 1018,9 hPa 0,0 l/m 3,0 km/h (1 Bft) N 360 0 min 11,8 klux 81 W/m
01.04.2016 08:39 5,1 C 6,5 C 8,3 C 83 % 1018,9 hPa 0,0 l/m 4,3 km/h (1 Bft) N 360 0 min 11,8 klux 81 W/m
01.04.2016 08:45 5,3 C 6,7 C 8,4 C 82 % 1018,9 hPa 0,0 l/m 4,0 km/h (1 Bft) N 360 6 min 20,6 klux 141 W/m
01.04.2016 08:49 5,6 C 7,3 C 8,2 C 82 % 1018,9 hPa 0,0 l/m 5,6 km/h (2 Bft) N 360 4 min 20,6 klux 141 W/m
01.04.2016 08:54 5,6 C 7,7 C 8,4 C 82 % 1018,9 hPa 0,0 l/m 6,1 km/h (2 Bft) N 360 5 min 23,9 klux 163 W/m
01.04.2016 08:59 5,7 C 7,9 C 8,4 C 81 % 1018,9 hPa 0,0 l/m 0,1 km/h (0 Bft) N 360 5 min 24,3 klux 166 W/m
01.04.2016 09:05 5,8 C 8,7 C 8,3 C 81 % 1018,9 hPa 0,0 l/m 0,1 km/h (0 Bft) N 360 6 min 26,7 klux 183 W/m
01.04.2016 09:09 6,0 C 9,6 C 8,3 C 82 % 1018,9 hPa 0,0 l/m 7,0 km/h (2 Bft) N22.5 360 4 min 27,9 klux 191 W/m
01.04.2016 09:14 6,1 C 10,7 C 8,4 C 82 % 1018,9 hPa 0,0 l/m 8,5 km/h (2 Bft) N45 10 5 min 28,1 klux 192 W/m
01.04.2016 09:19 6,4 C 11,5 C 8,4 C 81 % 1018,9 hPa 0,0 l/m 7,1 km/h (2 Bft) N-NO22.5 25 5 min 28,1 klux 192 W/m
01.04.2016 09:24 6,6 C 12,8 C 8,5 C 81 % 1018,9 hPa 0,0 l/m 6,0 km/h (2 Bft) N 355 5 min 31,4 klux 215 W/m
01.04.2016 09:29 6,8 C 13,7 C 8,5 C 80 % 1018,8 hPa 0,0 l/m 9,0 km/h (2 Bft) NO 40 5 min 34,0 klux 233 W/m
01.04.2016 09:34 7,0 C 14,6 C 8,5 C 79 % 1018,8 hPa 0,0 l/m 7,9 km/h (2 Bft) O-NO22.5 60 5 min 36,6 klux 250 W/m
01.04.2016 09:39 7,2 C 15,1 C 8,5 C 78 % 1018,8 hPa 0,0 l/m 11,7 km/h (2 Bft) NO22.5 35 5 min 36,6 klux 250 W/m
01.04.2016 09:44 7,2 C 17,1 C 8,5 C 78 % 1018,8 hPa 0,0 l/m 9,8 km/h (2 Bft) N-NO22.5 15 5 min 39,1 klux 267 W/m
01.04.2016 09:49 7,4 C 17,2 C 8,6 C 77 % 1018,8 hPa 0,0 l/m 7,9 km/h (2 Bft) N22.5 5 5 min 41,0 klux 280 W/m
01.04.2016 09:54 7,6 C 18,5 C 8,6 C 76 % 1018,8 hPa 0,0 l/m 10,3 km/h (2 Bft) N67.5 5 5 min 42,2 klux 289 W/m
01.04.2016 10:00 7,7 C 19,4 C 8,6 C 76 % 1019,8 hPa 0,0 l/m 7,0 km/h (2 Bft) N22.5 355 6 min 44,5 klux 304 W/m
01.04.2016 10:04 7,9 C 19,6 C 8,7 C 75 % 1019,8 hPa 0,0 l/m 10,9 km/h (2 Bft) N-NO45 20 4 min 46,2 klux 316 W/m
01.04.2016 10:09 8,0 C 20,1 C 8,7 C 74 % 1019,8 hPa 0,0 l/m 10,2 km/h (2 Bft) N45 10 5 min 47,5 klux 325 W/m
01.04.2016 10:14 8,0 C 21,2 C 8,7 C 74 % 1019,8 hPa 0,0 l/m 10,7 km/h (2 Bft) N22.5 5 5 min 48,5 klux 332 W/m
01.04.2016 10:20 8,4 C 22,6 C 8,8 C 74 % 1019,8 hPa 0,0 l/m 10,7 km/h (2 Bft) N-NO22.5 30 6 min 50,2 klux 343 W/m
01.04.2016 10:24 8,8 C 23,1 C 8,9 C 73 % 1019,8 hPa 0,0 l/m 10,3 km/h (2 Bft) N-NO22.5 25 4 min 51,3 klux 351 W/m
01.04.2016 10:29 8,9 C 24,0 C 8,9 C 71 % 1019,8 hPa 0,0 l/m 14,8 km/h (3 Bft) N-NO22.5 15 5 min 52,6 klux 360 W/m
01.04.2016 10:34 9,0 C 25,4 C 8,9 C 71 % 1019,8 hPa 0,0 l/m 1,0 km/h (0 Bft) NO 35 5 min 52,8 klux 361 W/m
01.04.2016 10:39 9,3 C 25,8 C 8,9 C 71 % 1019,8 hPa 0,0 l/m 1,3 km/h (1 Bft) NO 35 5 min 54,9 klux 376 W/m
01.04.2016 10:44 9,6 C 27,4 C 9,0 C 70 % 1019,8 hPa 0,0 l/m 0,7 km/h (0 Bft) NO 35 5 min 54,1 klux 370 W/m
01.04.2016 10:49 9,8 C 28,1 C 9,1 C 69 % 1019,8 hPa 0,0 l/m 6,8 km/h (2 Bft) NO 40 5 min 54,2 klux 371 W/m
01.04.2016 10:54 9,7 C 25,7 C 9,1 C 67 % 1019,8 hPa 0,0 l/m 11,6 km/h (2 Bft) NO 35 5 min 51,3 klux 351 W/m
01.04.2016 10:59 9,7 C 26,1 C 9,2 C 67 % 1019,8 hPa 0,0 l/m 9,7 km/h (2 Bft) N-NO 25 5 min 59,0 klux 404 W/m
01.04.2016 11:04 9,7 C 26,5 C 9,2 C 67 % 1019,8 hPa 0,0 l/m 12,7 km/h (3 Bft) NO22.5 35 5 min 59,1 klux 404 W/m
01.04.2016 11:09 9,6 C 25,2 C 9,3 C 67 % 1019,8 hPa 0,0 l/m 8,2 km/h (2 Bft) N45 360 5 min 62,0 klux 424 W/m
01.04.2016 11:14 9,6 C 25,5 C 9,2 C 68 % 1019,8 hPa 0,0 l/m 11,6 km/h (2 Bft) N22.5 10 5 min 62,0 klux 424 W/m
01.04.2016 11:19 9,6 C 25,6 C 9,2 C 67 % 1019,8 hPa 0,0 l/m 9,1 km/h (2 Bft) N-NO 15 5 min 63,2 klux 432 W/m
01.04.2016 11:24 9,7 C 27,0 C 9,3 C 66 % 1019,8 hPa 0,0 l/m 9,6 km/h (2 Bft) N 5 5 min 65,1 klux 445 W/m
01.04.2016 11:29 10,1 C 29,2 C 9,3 C 66 % 1019,8 hPa 0,0 l/m 0,4 km/h (0 Bft) N 360 5 min 68,7 klux 470 W/m
01.04.2016 11:35 10,1 C 30,8 C 9,3 C 66 % 1020,8 hPa 0,0 l/m 4,8 km/h (1 Bft) N 360 6 min 68,7 klux 470 W/m
01.04.2016 11:39 10,1 C 32,2 C 9,4 C 65 % 1019,8 hPa 0,0 l/m 7,7 km/h (2 Bft) N-NW22.5 340 4 min 76,5 klux 523 W/m
01.04.2016 11:44 10,3 C 34,0 C 9,4 C 65 % 1020,8 hPa 0,0 l/m 0,0 km/h (0 Bft) N-NW 340 5 min 79,0 klux 540 W/m
01.04.2016 11:49 10,8 C 34,4 C 9,8 C 66 % 1020,8 hPa 0,0 l/m 8,4 km/h (2 Bft) W-SW67.5 240 5 min 77,0 klux 527 W/m
01.04.2016 11:54 10,9 C 33,1 C 9,8 C 64 % 1020,8 hPa 0,0 l/m 2,0 km/h (1 Bft) W 280 5 min 74,8 klux 512 W/m
01.04.2016 12:00 11,3 C 37,4 C 9,8 C 64 % 1020,8 hPa 0,0 l/m 7,4 km/h (2 Bft) SW22.5 225 6 min 81,3 klux 556 W/m
01.04.2016 12:04 11,3 C 36,6 C 9,8 C 64 % 1020,8 hPa 0,0 l/m 7,8 km/h (2 Bft) S-SW45 205 4 min 73,7 klux 504 W/m
01.04.2016 12:09 11,4 C 37,1 C 10,0 C 61 % 1020,8 hPa 0,0 l/m 9,0 km/h (2 Bft) S-SW22.5 210 5 min 80,9 klux 553 W/m
01.04.2016 12:14 11,7 C 37,0 C 9,9 C 60 % 1020,8 hPa 0,0 l/m 2,6 km/h (1 Bft) O22.5 95 0 min 30,0 klux 205 W/m
01.04.2016 12:19 11,9 C 36,5 C 10,2 C 58 % 1020,8 hPa 0,0 l/m 11,0 km/h (2 Bft) SO45 135 0 min 42,5 klux 291 W/m
01.04.2016 12:24 11,8 C 32,4 C 10,2 C 59 % 1019,8 hPa 0,0 l/m 7,8 km/h (2 Bft) S22.5 180 0 min 49,6 klux 339 W/m
01.04.2016 12:29 11,8 C 30,5 C 10,3 C 59 % 1019,8 hPa 0,0 l/m 0,4 km/h (0 Bft) SO 145 0 min 37,5 klux 257 W/m
01.04.2016 12:34 12,0 C 33,4 C 10,0 C 59 % 1019,8 hPa 0,0 l/m 4,3 km/h (1 Bft) SO 140 5 min 81,8 klux 560 W/m
01.04.2016 12:39 12,3 C 32,0 C 10,0 C 58 % 1019,8 hPa 0,0 l/m 16,3 km/h (3 Bft) O-SO45 105 0 min 24,1 klux 165 W/m
01.04.2016 12:45 11,9 C 27,5 C 10,2 C 57 % 1019,8 hPa 0,0 l/m 15,1 km/h (3 Bft) S-SO67.5 165 0 min 24,1 klux 165 W/m
01.04.2016 12:49 11,8 C 27,6 C 10,0 C 57 % 1019,8 hPa 0,0 l/m 16,7 km/h (3 Bft) O45 85 4 min 82,0 klux 561 W/m
01.04.2016 12:54 12,0 C 28,9 C 10,3 C 57 % 1019,8 hPa 0,0 l/m 9,6 km/h (2 Bft) O45 90 5 min 89,5 klux 612 W/m
01.04.2016 12:59 12,4 C 35,4 C 10,5 C 57 % 1019,8 hPa 0,0 l/m 15,5 km/h (3 Bft) SO45 125 5 min 89,8 klux 614 W/m
01.04.2016 13:05 12,8 C 38,6 C 11,0 C 57 % 1019,8 hPa 0,0 l/m 14,9 km/h (3 Bft) SO45 130 6 min 87,7 klux 600 W/m
01.04.2016 13:09 13,1 C 38,8 C 10,8 C 54 % 1019,8 hPa 0,0 l/m 17,0 km/h (3 Bft) SO67.5 140 4 min 86,4 klux 591 W/m
01.04.2016 13:14 13,0 C 36,3 C 10,7 C 54 % 1019,8 hPa 0,0 l/m 13,0 km/h (3 Bft) SO67.5 125 5 min 80,1 klux 548 W/m
01.04.2016 13:19 12,5 C 32,1 C 10,5 C 54 % 1019,8 hPa 0,0 l/m 13,7 km/h (3 Bft) SO67.5 130 5 min 80,1 klux 548 W/m
01.04.2016 13:24 12,8 C 33,9 C 11,0 C 56 % 1019,8 hPa 0,0 l/m 13,5 km/h (3 Bft) SO67.5 135 0 min 48,2 klux 330 W/m
01.04.2016 13:29 12,4 C 31,4 C 10,4 C 55 % 1019,8 hPa 0,0 l/m 14,6 km/h (3 Bft) O-SO22.5 105 0 min 22,7 klux 155 W/m
01.04.2016 13:34 12,2 C 26,6 C 10,3 C 54 % 1019,8 hPa 0,0 l/m 16,4 km/h (3 Bft) O45 85 0 min 23,4 klux 160 W/m
01.04.2016 13:39 12,1 C 28,6 C 10,8 C 55 % 1019,8 hPa 0,0 l/m 15,3 km/h (3 Bft) O-SO45 110 5 min 79,0 klux 540 W/m
01.04.2016 13:44 12,9 C 31,6 C 10,7 C 53 % 1019,8 hPa 0,0 l/m 12,5 km/h (2 Bft) SO67.5 140 5 min 82,3 klux 563 W/m
01.04.2016 13:49 13,2 C 36,0 C 11,6 C 53 % 1019,8 hPa 0,0 l/m 11,5 km/h (2 Bft) S-SO67.5 160 5 min 83,6 klux 572 W/m
01.04.2016 13:54 13,4 C 37,4 C 11,7 C 53 % 1019,8 hPa 0,0 l/m 13,9 km/h (3 Bft) SO45 145 5 min 79,0 klux 540 W/m
01.04.2016 14:00 13,6 C 37,0 C 11,5 C 52 % 1019,8 hPa 0,0 l/m 14,5 km/h (3 Bft) S-SO45 155 6 min 82,7 klux 566 W/m
01.04.2016 14:04 13,4 C 34,7 C 11,3 C 51 % 1019,8 hPa 0,0 l/m 10,0 km/h (2 Bft) O67.5 90 4 min 81,9 klux 560 W/m
01.04.2016 14:09 13,6 C 36,2 C 11,0 C 51 % 1019,8 hPa 0,0 l/m 9,0 km/h (2 Bft) O-SO45 115 5 min 83,4 klux 570 W/m
01.04.2016 14:14 13,6 C 38,1 C 10,9 C 50 % 1019,8 hPa 0,0 l/m 12,6 km/h (3 Bft) SO67.5 125 5 min 79,2 klux 542 W/m
01.04.2016 14:20 13,6 C 36,8 C 11,4 C 50 % 1019,8 hPa 0,0 l/m 12,1 km/h (2 Bft) SO67.5 135 6 min 64,4 klux 440 W/m
01.04.2016 14:24 13,2 C 33,3 C 11,4 C 50 % 1019,8 hPa 0,0 l/m 10,8 km/h (2 Bft) O-SO22.5 120 4 min 73,8 klux 505 W/m
01.04.2016 14:29 13,2 C 31,0 C 10,9 C 49 % 1019,8 hPa 0,0 l/m 10,3 km/h (2 Bft) O-SO22.5 105 5 min 73,8 klux 505 W/m
01.04.2016 14:34 12,9 C 28,8 C 10,8 C 50 % 1019,8 hPa 0,0 l/m 15,3 km/h (3 Bft) O67.5 100 0 min 50,0 klux 342 W/m
01.04.2016 14:39 13,1 C 28,2 C 10,8 C 49 % 1019,8 hPa 0,0 l/m 13,1 km/h (3 Bft) O45 95 5 min 75,3 klux 515 W/m
01.04.2016 14:44 12,9 C 27,8 C 10,7 C 50 % 1019,8 hPa 0,0 l/m 14,5 km/h (3 Bft) O45 100 5 min 67,6 klux 462 W/m
01.04.2016 14:49 13,4 C 29,9 C 11,7 C 51 % 1019,8 hPa 0,0 l/m 16,2 km/h (3 Bft) O67.5 90 5 min 81,6 klux 558 W/m
01.04.2016 14:54 13,6 C 36,0 C 11,3 C 47 % 1019,8 hPa 0,0 l/m 7,7 km/h (2 Bft) SO22.5 140 5 min 83,9 klux 574 W/m
01.04.2016 14:59 14,1 C 39,4 C 11,5 C 48 % 1019,8 hPa 0,0 l/m 13,1 km/h (3 Bft) SO67.5 125 5 min 82,7 klux 566 W/m
01.04.2016 15:05 14,3 C 39,7 C 12,5 C 47 % 1019,8 hPa 0,0 l/m 12,0 km/h (2 Bft) O67.5 90 6 min 79,2 klux 542 W/m
01.04.2016 15:09 14,4 C 40,4 C 12,9 C 47 % 1019,7 hPa 0,0 l/m 15,1 km/h (3 Bft) S-SO22.5 155 4 min 80,0 klux 547 W/m
01.04.2016 15:14 14,7 C 40,7 C 13,2 C 47 % 1019,7 hPa 0,0 l/m 13,5 km/h (3 Bft) SO67.5 130 5 min 81,2 klux 555 W/m
01.04.2016 15:19 14,8 C 39,0 C 12,9 C 44 % 1018,7 hPa 0,0 l/m 16,6 km/h (3 Bft) S-SO67.5 150 5 min 80,3 klux 549 W/m
01.04.2016 15:24 14,5 C 36,9 C 12,0 C 43 % 1018,7 hPa 0,0 l/m 12,9 km/h (3 Bft) S-SO67.5 150 5 min 61,1 klux 418 W/m
01.04.2016 15:29 14,4 C 34,5 C 11,7 C 46 % 1018,7 hPa 0,0 l/m 16,7 km/h (3 Bft) O-NO45 70 5 min 71,1 klux 486 W/m
01.04.2016 15:34 14,2 C 29,3 C 11,6 C 45 % 1018,7 hPa 0,0 l/m 16,3 km/h (3 Bft) NO45 50 0 min 36,6 klux 250 W/m
01.04.2016 15:39 13,6 C 27,8 C 11,4 C 46 % 1018,8 hPa 0,0 l/m 12,4 km/h (2 Bft) O-NO45 75 0 min 17,1 klux 117 W/m
01.04.2016 15:44 13,5 C 24,6 C 11,3 C 47 % 1018,8 hPa 0,0 l/m 11,5 km/h (2 Bft) O22.5 85 0 min 21,9 klux 150 W/m
01.04.2016 15:49 13,4 C 24,3 C 11,4 C 45 % 1018,8 hPa 0,0 l/m 21,5 km/h (4 Bft) O22.5 90 0 min 33,1 klux 226 W/m
01.04.2016 15:54 14,0 C 29,3 C 12,2 C 46 % 1018,8 hPa 0,0 l/m 5,5 km/h (2 Bft) O-SO45 105 5 min 68,6 klux 469 W/m
01.04.2016 15:59 14,2 C 31,6 C 12,3 C 46 % 1018,7 hPa 0,0 l/m 10,4 km/h (2 Bft) S22.5 175 5 min 71,2 klux 487 W/m
01.04.2016 16:04 14,5 C 32,1 C 11,9 C 44 % 1018,7 hPa 0,0 l/m 11,0 km/h (2 Bft) O-SO45 115 0 min 18,9 klux 129 W/m
01.04.2016 16:09 14,4 C 30,0 C 12,2 C 43 % 1018,7 hPa 0,0 l/m 7,8 km/h (2 Bft) O-SO22.5 115 5 min 50,7 klux 347 W/m
01.04.2016 16:14 14,3 C 28,9 C 13,0 C 42 % 1018,7 hPa 0,0 l/m 11,6 km/h (2 Bft) O-SO67.5 105 5 min 64,2 klux 439 W/m
01.04.2016 16:19 14,9 C 32,9 C 14,2 C 42 % 1018,7 hPa 0,0 l/m 14,5 km/h (3 Bft) S-SO45 160 5 min 71,9 klux 492 W/m
01.04.2016 16:24 14,8 C 32,5 C 13,4 C 43 % 1018,7 hPa 0,0 l/m 31,8 km/h (5 Bft) S45 180 5 min 71,8 klux 491 W/m
01.04.2016 16:29 15,0 C 33,5 C 12,8 C 44 % 1018,7 hPa 0,0 l/m 11,0 km/h (2 Bft) O-SO45 110 5 min 70,2 klux 480 W/m
01.04.2016 16:34 15,1 C 34,6 C 12,8 C 41 % 1018,7 hPa 0,0 l/m 9,9 km/h (2 Bft) SO67.5 145 5 min 68,9 klux 471 W/m
01.04.2016 16:39 15,0 C 35,2 C 12,6 C 42 % 1018,7 hPa 0,0 l/m 13,6 km/h (3 Bft) SO67.5 125 5 min 65,9 klux 451 W/m
01.04.2016 16:44 15,0 C 34,7 C 13,3 C 43 % 1018,7 hPa 0,0 l/m 13,6 km/h (3 Bft) SO67.5 125 5 min 60,7 klux 415 W/m
01.04.2016 16:49 15,0 C 33,8 C 12,4 C 42 % 1018,7 hPa 0,0 l/m 12,8 km/h (3 Bft) O-SO67.5 110 5 min 53,6 klux 367 W/m
01.04.2016 16:54 14,8 C 32,5 C 12,7 C 41 % 1018,7 hPa 0,0 l/m 10,0 km/h (2 Bft) SO45 125 5 min 59,1 klux 404 W/m
01.04.2016 16:59 14,8 C 31,0 C 12,4 C 41 % 1018,7 hPa 0,0 l/m 18,6 km/h (3 Bft) O-SO45 115 5 min 56,9 klux 389 W/m
01.04.2016 17:04 14,8 C 30,9 C 12,3 C 41 % 1018,7 hPa 0,0 l/m 19,0 km/h (3 Bft) O45 95 5 min 57,9 klux 396 W/m
01.04.2016 17:09 14,8 C 30,7 C 12,3 C 39 % 1018,7 hPa 0,0 l/m 12,3 km/h (2 Bft) O67.5 100 5 min 52,7 klux 360 W/m
01.04.2016 17:14 14,7 C 29,9 C 12,3 C 41 % 1017,7 hPa 0,0 l/m 17,7 km/h (3 Bft) SO67.5 125 5 min 52,7 klux 360 W/m
01.04.2016 17:19 14,8 C 29,5 C 12,9 C 41 % 1018,7 hPa 0,0 l/m 14,1 km/h (3 Bft) O45 95 5 min 38,2 klux 261 W/m
01.04.2016 17:24 14,6 C 28,6 C 12,7 C 41 % 1018,7 hPa 0,0 l/m 10,5 km/h (2 Bft) O-SO22.5 110 0 min 14,8 klux 101 W/m
01.04.2016 17:29 14,4 C 28,9 C 12,5 C 41 % 1017,7 hPa 0,0 l/m 11,6 km/h (2 Bft) O45 100 0 min 12,7 klux 87 W/m
01.04.2016 17:34 14,4 C 28,5 C 12,6 C 40 % 1017,7 hPa 0,0 l/m 12,7 km/h (3 Bft) S-SO67.5 155 0 min 12,0 klux 82 W/m
01.04.2016 17:39 14,4 C 27,9 C 12,8 C 41 % 1017,7 hPa 0,0 l/m 16,1 km/h (3 Bft) SO67.5 145 0 min 12,0 klux 82 W/m
01.04.2016 17:44 14,3 C 25,3 C 13,2 C 41 % 1017,7 hPa 0,0 l/m 14,1 km/h (3 Bft) S-SO45 155 0 min 11,6 klux 79 W/m
01.04.2016 17:49 14,0 C 21,5 C 13,1 C 41 % 1017,7 hPa 0,0 l/m 13,6 km/h (3 Bft) SO67.5 135 0 min 9,8 klux 67 W/m
01.04.2016 17:54 14,0 C 20,7 C 12,8 C 41 % 1017,7 hPa 0,0 l/m 17,4 km/h (3 Bft) S-SO67.5 150 0 min 10,6 klux 73 W/m
01.04.2016 17:59 13,9 C 20,4 C 13,2 C 42 % 1017,7 hPa 0,0 l/m 12,3 km/h (2 Bft) S-SO22.5 160 0 min 10,8 klux 74 W/m
01.04.2016 18:04 13,9 C 20,5 C 13,3 C 43 % 1017,7 hPa 0,0 l/m 14,3 km/h (3 Bft) S-SO22.5 155 0 min 11,7 klux 80 W/m
01.04.2016 18:10 13,9 C 21,0 C 13,3 C 42 % 1017,7 hPa 0,0 l/m 12,2 km/h (2 Bft) S45 170 6 min 23,9 klux 163 W/m
01.04.2016 18:14 14,2 C 21,1 C 13,0 C 42 % 1017,7 hPa 0,0 l/m 9,0 km/h (2 Bft) SO45 140 4 min 27,2 klux 186 W/m
01.04.2016 18:19 14,1 C 19,7 C 13,0 C 43 % 1017,7 hPa 0,0 l/m 9,5 km/h (2 Bft) S-SO45 155 0 min 11,8 klux 81 W/m
01.04.2016 18:24 14,1 C 19,3 C 13,0 C 42 % 1017,7 hPa 0,0 l/m 10,5 km/h (2 Bft) S-SO22.5 160 0 min 10,6 klux 73 W/m
01.04.2016 18:29 14,2 C 19,5 C 12,8 C 42 % 1017,7 hPa 0,0 l/m 7,8 km/h (2 Bft) SO22.5 140 0 min 10,7 klux 73 W/m
01.04.2016 18:35 14,2 C 20,0 C 12,7 C 42 % 1017,7 hPa 0,0 l/m 12,0 km/h (2 Bft) SO22.5 125 0 min 10,2 klux 70 W/m
01.04.2016 18:39 14,3 C 20,1 C 12,9 C 42 % 1017,7 hPa 0,0 l/m 8,5 km/h (2 Bft) SO45 140 0 min 9,6 klux 66 W/m
01.04.2016 18:44 14,3 C 19,6 C 12,8 C 41 % 1017,7 hPa 0,0 l/m 13,5 km/h (3 Bft) SO45 135 0 min 10,0 klux 68 W/m
01.04.2016 18:49 14,2 C 18,9 C 13,0 C 41 % 1017,7 hPa 0,0 l/m 5,7 km/h (2 Bft) SO45 145 0 min 13,0 klux 89 W/m
01.04.2016 18:54 14,2 C 17,8 C 12,7 C 42 % 1017,7 hPa 0,0 l/m 12,5 km/h (2 Bft) SO45 130 0 min 13,6 klux 93 W/m
01.04.2016 18:59 14,2 C 17,2 C 12,2 C 41 % 1017,7 hPa 0,0 l/m 12,7 km/h (3 Bft) O-SO22.5 115 5 min 16,2 klux 111 W/m
01.04.2016 19:04 13,9 C 15,6 C 12,5 C 39 % 1017,7 hPa 0,0 l/m 15,1 km/h (3 Bft) SO67.5 140 5 min 13,8 klux 94 W/m
01.04.2016 19:09 13,7 C 14,1 C 12,3 C 42 % 1017,8 hPa 0,0 l/m 15,1 km/h (3 Bft) SO67.5 140 0 min 8,50 klux 58 W/m
01.04.2016 19:14 13,5 C 12,8 C 12,8 C 41 % 1017,8 hPa 0,0 l/m 12,1 km/h (2 Bft) O45 100 0 min 7,07 klux 48 W/m
01.04.2016 19:20 13,3 C 12,4 C 12,7 C 41 % 1017,8 hPa 0,0 l/m 8,2 km/h (2 Bft) S-SO22.5 155 0 min 5,31 klux 36 W/m
01.04.2016 19:24 13,0 C 11,6 C 12,4 C 43 % 1017,8 hPa 0,0 l/m 9,6 km/h (2 Bft) SO22.5 140 0 min 4,89 klux 33 W/m
01.04.2016 19:29 12,8 C 10,9 C 12,0 C 44 % 1017,8 hPa 0,0 l/m 6,7 km/h (2 Bft) O-SO45 115 0 min 4,68 klux 32 W/m
01.04.2016 19:34 12,6 C 10,6 C 12,0 C 44 % 1017,8 hPa 0,0 l/m 10,8 km/h (2 Bft) O-SO45 115 0 min 3,72 klux 25 W/m
01.04.2016 19:39 12,4 C 10,1 C 12,1 C 45 % 1017,8 hPa 0,0 l/m 8,7 km/h (2 Bft) O-SO22.5 115 0 min 2,45 klux 17 W/m
01.04.2016 19:45 12,4 C 9,5 C 12,2 C 45 % 1017,8 hPa 0,0 l/m 5,1 km/h (1 Bft) O-SO 120 0 min 2,12 klux 15 W/m
01.04.2016 19:49 12,3 C 9,2 C 11,9 C 45 % 1017,8 hPa 0,0 l/m 6,7 km/h (2 Bft) SO22.5 135 0 min 1,82 klux 12 W/m
01.04.2016 19:54 12,0 C 8,7 C 12,0 C 46 % 1017,8 hPa 0,0 l/m 5,7 km/h (2 Bft) SO 130 0 min 1,29 klux 9 W/m
01.04.2016 19:59 11,8 C 8,2 C 11,6 C 47 % 1017,8 hPa 0,0 l/m 4,7 km/h (1 Bft) SO 130 0 min 864 lux 6 W/m
01.04.2016 20:04 11,7 C 8,0 C 11,8 C 47 % 1017,8 hPa 0,0 l/m 0,6 km/h (0 Bft) SO 130 0 min 525 lux 0 W/m
01.04.2016 20:09 11,5 C 7,6 C 11,7 C 47 % 1017,8 hPa 0,0 l/m 1,1 km/h (1 Bft) O-SO45 105 0 min 327 lux 0 W/m
01.04.2016 20:14 11,4 C 7,2 C 11,7 C 48 % 1017,8 hPa 0,0 l/m 0,4 km/h (0 Bft) O22.5 85 0 min 203 lux 0 W/m
01.04.2016 20:19 11,3 C 7,1 C 11,6 C 48 % 1017,8 hPa 0,0 l/m 7,4 km/h (2 Bft) O-SO22.5 110 0 min 82 lux 0 W/m
01.04.2016 20:24 11,2 C 6,9 C 11,6 C 49 % 1017,8 hPa 0,0 l/m 6,0 km/h (2 Bft) O-SO22.5 110 0 min 57 lux 0 W/m
01.04.2016 20:29 11,1 C 6,7 C 11,5 C 49 % 1017,8 hPa 0,0 l/m 6,8 km/h (2 Bft) SO 135 0 min 27 lux 0 W/m
01.04.2016 20:34 11,0 C 6,7 C 11,5 C 49 % 1017,8 hPa 0,0 l/m 1,7 km/h (1 Bft) SO 130 0 min 11 lux 0 W/m
01.04.2016 20:39 10,9 C 6,6 C 11,4 C 49 % 1017,8 hPa 0,0 l/m 4,3 km/h (1 Bft) O-SO 105 0 min 11 lux 0 W/m
01.04.2016 20:44 10,7 C 6,5 C 11,3 C 50 % 1017,8 hPa 0,0 l/m 7,2 km/h (2 Bft) O-SO22.5 110 0 min 5 lux 0 W/m
01.04.2016 20:49 10,6 C 6,3 C 11,3 C 50 % 1018,8 hPa 0,0 l/m 8,0 km/h (2 Bft) SO45 125 0 min 1 lux 0 W/m
01.04.2016 20:54 10,5 C 6,3 C 11,2 C 51 % 1018,8 hPa 0,0 l/m 10,0 km/h (2 Bft) SO67.5 135 0 min 0 lux 0 W/m
01.04.2016 20:59 10,2 C 6,2 C 11,1 C 51 % 1018,8 hPa 0,0 l/m 3,7 km/h (1 Bft) O-SO 115 0 min 0 lux 0 W/m
01.04.2016 21:04 10,0 C 6,1 C 11,1 C 52 % 1018,8 hPa 0,0 l/m 6,8 km/h (2 Bft) O-SO 115 0 min 0 lux 0 W/m
01.04.2016 21:09 9,9 C 5,9 C 11,0 C 53 % 1018,8 hPa 0,0 l/m 5,0 km/h (1 Bft) O-SO 115 0 min 0 lux 0 W/m
01.04.2016 21:14 9,8 C 5,7 C 11,0 C 53 % 1018,8 hPa 0,0 l/m 1,3 km/h (1 Bft) O-SO 105 0 min 0 lux 0 W/m
01.04.2016 21:19 9,7 C 5,6 C 11,0 C 53 % 1018,8 hPa 0,0 l/m 6,8 km/h (2 Bft) O-SO22.5 120 0 min 0 lux 0 W/m
01.04.2016 21:24 9,5 C 5,3 C 11,0 C 55 % 1018,8 hPa 0,0 l/m 6,8 km/h (2 Bft) O-SO22.5 120 0 min 0 lux 0 W/m
01.04.2016 21:29 9,4 C 5,2 C 11,0 C 55 % 1018,8 hPa 0,0 l/m 0,5 km/h (0 Bft) O-SO 115 0 min 0 lux 0 W/m
01.04.2016 21:34 9,5 C 5,0 C 11,0 C 55 % 1018,8 hPa 0,0 l/m 0,6 km/h (0 Bft) O-SO 120 0 min 0 lux 0 W/m
01.04.2016 21:39 9,3 C 4,8 C 11,0 C 55 % 1018,8 hPa 0,0 l/m 4,5 km/h (1 Bft) O-SO 120 0 min 0 lux 0 W/m
01.04.2016 21:44 9,3 C 4,7 C 11,0 C 55 % 1018,8 hPa 0,0 l/m 6,3 km/h (2 Bft) SO 145 0 min 0 lux 0 W/m
01.04.2016 21:49 9,3 C 4,7 C 11,0 C 57 % 1018,8 hPa 0,0 l/m 7,4 km/h (2 Bft) S-SO 155 0 min 0 lux 0 W/m
01.04.2016 21:54 9,3 C 4,8 C 10,9 C 58 % 1018,8 hPa 0,0 l/m 7,0 km/h (2 Bft) S-SO 155 0 min 0 lux 0 W/m
01.04.2016 21:59 9,3 C 4,8 C 10,9 C 58 % 1018,8 hPa 0,0 l/m 6,8 km/h (2 Bft) S-SO 160 0 min 0 lux 0 W/m
01.04.2016 22:04 9,3 C 4,8 C 10,9 C 58 % 1018,8 hPa 0,0 l/m 7,0 km/h (2 Bft) S-SO 165 0 min 0 lux 0 W/m
01.04.2016 22:09 9,2 C 4,7 C 10,9 C 59 % 1018,8 hPa 0,0 l/m 7,4 km/h (2 Bft) S-SO 160 0 min 0 lux 0 W/m
01.04.2016 22:14 9,2 C 4,7 C 10,9 C 59 % 1018,8 hPa 0,0 l/m 6,5 km/h (2 Bft) S-SO 165 0 min 0 lux 0 W/m
01.04.2016 22:20 9,2 C 4,7 C 10,9 C 60 % 1018,8 hPa 0,0 l/m 8,1 km/h (2 Bft) S-SO 160 0 min 0 lux 0 W/m
01.04.2016 22:24 9,1 C 4,7 C 10,8 C 60 % 1018,8 hPa 0,0 l/m 6,7 km/h (2 Bft) S-SO 160 0 min 0 lux 0 W/m
01.04.2016 22:29 9,0 C 4,6 C 10,8 C 60 % 1018,8 hPa 0,0 l/m 6,7 km/h (2 Bft) S-SO 160 0 min 0 lux 0 W/m
01.04.2016 22:34 9,0 C 4,5 C 10,8 C 61 % 1018,8 hPa 0,0 l/m 2,9 km/h (1 Bft) S-SO 160 0 min 0 lux 0 W/m
01.04.2016 22:39 8,8 C 4,3 C 10,8 C 61 % 1018,8 hPa 0,0 l/m 0,6 km/h (0 Bft) S-SO 160 0 min 0 lux 0 W/m
01.04.2016 22:45 8,7 C 4,8 C 10,8 C 62 % 1018,8 hPa 0,0 l/m 0,4 km/h (0 Bft) S-SO 160 0 min 0 lux 0 W/m
01.04.2016 22:49 8,8 C 5,6 C 10,7 C 62 % 1018,8 hPa 0,0 l/m 0,4 km/h (0 Bft) S-SO 160 0 min 0 lux 0 W/m
01.04.2016 22:54 8,8 C 5,9 C 10,8 C 62 % 1018,8 hPa 0,0 l/m 0,3 km/h (0 Bft) S-SO 160 0 min 0 lux 0 W/m
01.04.2016 22:59 8,8 C 6,3 C 10,7 C 63 % 1018,8 hPa 0,0 l/m 0,6 km/h (0 Bft) S-SO 160 0 min 0 lux 0 W/m
01.04.2016 23:04 8,8 C 6,6 C 10,7 C 63 % 1018,8 hPa 0,0 l/m 1,0 km/h (0 Bft) S-SO 160 0 min 0 lux 0 W/m
01.04.2016 23:09 8,9 C 6,8 C 10,7 C 63 % 1018,8 hPa 0,0 l/m 0,1 km/h (0 Bft) S-SO 160 0 min 0 lux 0 W/m
01.04.2016 23:14 9,0 C 7,0 C 10,7 C 64 % 1018,8 hPa 0,0 l/m 0,0 km/h (0 Bft) S-SO 160 0 min 0 lux 0 W/m
01.04.2016 23:19 8,9 C 7,1 C 10,6 C 64 % 1018,8 hPa 0,0 l/m 1,0 km/h (0 Bft) S-SO 160 0 min 0 lux 0 W/m
01.04.2016 23:24 8,9 C 7,0 C 10,6 C 64 % 1018,8 hPa 0,0 l/m 1,1 km/h (1 Bft) O-SO 105 0 min 0 lux 0 W/m
01.04.2016 23:29 8,8 C 7,0 C 10,6 C 64 % 1018,8 hPa 0,0 l/m 0,9 km/h (0 Bft) O-SO 105 0 min 0 lux 0 W/m
01.04.2016 23:34 8,8 C 7,0 C 10,6 C 64 % 1018,8 hPa 0,0 l/m 0,2 km/h (0 Bft) O-SO 115 0 min 0 lux 0 W/m
01.04.2016 23:39 8,7 C 7,0 C 10,6 C 64 % 1018,8 hPa 0,0 l/m 0,5 km/h (0 Bft) SO 125 0 min 0 lux 0 W/m
01.04.2016 23:44 8,7 C 7,1 C 10,5 C 64 % 1018,8 hPa 0,0 l/m 0,3 km/h (0 Bft) SO 130 0 min 0 lux 0 W/m
01.04.2016 23:49 8,8 C 7,2 C 10,4 C 65 % 1018,8 hPa 0,0 l/m 5,9 km/h (2 Bft) O22.5 80 0 min 0 lux 0 W/m
01.04.2016 23:54 8,8 C 7,3 C 10,5 C 65 % 1018,8 hPa 0,0 l/m 6,9 km/h (2 Bft) O-SO45 110 0 min 0 lux 0 W/m
01.04.2016 23:59 8,8 C 7,4 C 10,5 C 65 % 1018,8 hPa 0,0 l/m 8,0 km/h (2 Bft) O-SO22.5 120 0 min 0 lux 0 W/m
_ Min-Zeit 07:34 07:44 08:49 17:09 00:04 - 01:39 - - - - -
Minimum _ 3,9 C 1,3 C 8,2 C 39 % 1012,8 hPa - 0,0 km/h (0 Bft) - - - - -
_ Max-Zeit 16:34 15:14 16:19 08:39 11:35 00:04 16:24 - - 08:45 12:59 12:59
Maximum _ 15,1 C 40,7 C 14,2 C 83 % 1020,8 hPa 0,0 l/m 31,8 km/h
S (5 Bft)
- - 6 min 89,8 klux 614 W/m
Durchschnitt _ 9,5 C 14,9 C 10,2 C 62 % 1017,7 hPa #0,0 l/m 9,4 km/h (2 Bft) N - #7:44 h 22,3 klux 285 W/m